Terminal Aerodrome Forecast
Issued by NWS

Home | Current Version | Previous Version | Text Only | Print | Product List | Glossary On
Versions: 1 2 3 4 5 6 7 8 9 10 11 12 13 14 15 16 17 18 19 20
000
FTUS46 KEKA 181136
TAFCEC
TAF
KCEC 181136Z 1812/1912 07005KT 3SM -SHRA BR BKN021 OVC035
     FM181800 15008KT P6SM VCSH SCT015 BKN035
     FM190000 18005KT P6SM SCT015
     FM190600 03003KT P6SM SCT003=

USA.gov is the U.S. government's official web portal to all federal, state and local government web resources and services.